Location: Paris
(48.6709°N, 2.3750°E)
Time: 00:29:36
(UTC+01:00)

N. Korean satellite - Visible Passes

Search period start: 29 January 2022 00:00
Search period end: 08 February 2022 00:00
Orbit: 447 x 490 km, 97.3° (Epoch: 28 January)

Date Brightness Start Highest point End Pass type
(mag) Time Alt. Az. Time Alt. Az. Time Alt. Az.
29 Jan 9.2 05:19:29 10° NE 05:22:16 20° E 05:24:38 12° SE visible
29 Jan 7.2 06:52:12 10° N 06:55:29 33° WNW 06:58:42 10° SW visible
30 Jan 6.4 06:22:41 10° N 06:26:20 72° WNW 06:29:41 12° SSW visible
31 Jan 7.4 05:53:29 10° NNE 05:57:03 50° E 06:00:34 10° S visible
31 Jan 8.2 07:27:39 10° NNW 07:29:48 15° WNW 07:31:58 10° W visible
01 Feb 8.9 05:24:39 10° NE 05:27:37 23° E 05:30:34 10° SSE visible
01 Feb 7.4 06:57:35 10° N 07:00:46 29° WNW 07:03:55 10° SW visible
02 Feb 9.9 04:56:50 10° ENE 04:58:03 11° E 04:59:16 10° ESE visible
02 Feb 6.5 06:27:59 10° N 06:31:36 62° WNW 06:35:09 10° SSW visible
03 Feb 7.1 05:58:41 10° NNE 06:02:16 58° E 06:05:50 10° S visible
03 Feb 8.4 07:33:07 10° NNW 07:34:58 14° WNW 07:36:48 10° W visible
04 Feb 8.7 05:29:43 10° NE 05:32:50 26° E 05:35:54 10° SSE visible
04 Feb 7.6 07:02:51 10° N 07:05:54 25° WNW 07:08:55 10° SW visible
05 Feb 9.8 05:01:31 10° ENE 05:03:15 13° E 05:04:57 10° ESE visible
05 Feb 6.6 06:33:09 10° N 06:36:43 53° WNW 06:40:12 10° SSW visible
06 Feb 6.8 06:03:45 10° NNE 06:07:23 67° ESE 06:10:56 10° S visible
07 Feb 8.5 05:34:41 10° NNE 05:37:54 30° E 05:41:05 10° SSE visible
07 Feb 7.7 07:08:01 10° NNW 07:10:55 23° WNW 07:13:46 10° WSW visible
